TimeCDT,TemperatureF,Dew PointF,Humidity,Sea Level PressureIn,VisibilityMPH,Wind Direction,Wind SpeedMPH,Gust SpeedMPH,PrecipitationIn,Events,Conditions,WindDirDegrees,DateUTC
12:52 AM,35.6,33.8,93,29.97,10.0,Calm,Calm,-,N/A,,Clear,0,2012-10-31 05:52:00
1:52 AM,34.0,32.0,92,30.01,9.0,East,4.6,-,N/A,,Clear,90,2012-10-31 06:52:00
2:52 AM,32.0,30.9,96,30.01,7.0,ENE,5.8,-,N/A,,Clear,60,2012-10-31 07:52:00
3:52 AM,30.0,28.9,96,30.01,5.0,NE,3.5,-,N/A,,Clear,50,2012-10-31 08:52:00
4:52 AM,30.0,28.0,92,30.01,6.0,Calm,Calm,-,N/A,,Clear,0,2012-10-31 09:52:00
5:52 AM,28.9,28.0,96,30.01,3.0,ESE,3.5,-,N/A,,Clear,110,2012-10-31 10:52:00
6:31 AM,28.4,26.6,93,29.96,2.0,WNW,4.6,-,N/A,,Partly Cloudy,290,2012-10-31 11:31:00
6:39 AM,28.4,28.4,100,29.96,3.0,Calm,Calm,-,N/A,,Scattered Clouds,0,2012-10-31 11:39:00
6:52 AM,32.0,30.0,92,30.00,3.0,Calm,Calm,-,N/A,,Partly Cloudy,0,2012-10-31 11:52:00
7:52 AM,32.0,30.9,96,29.99,6.0,ESE,3.5,-,N/A,,Partly Cloudy,120,2012-10-31 12:52:00
8:52 AM,33.1,32.0,96,30.02,4.0,Calm,Calm,-,N/A,,Clear,0,2012-10-31 13:52:00
9:52 AM,36.0,34.0,93,30.01,6.0,Calm,Calm,-,N/A,,Partly Cloudy,0,2012-10-31 14:52:00
10:52 AM,39.0,37.0,93,30.02,7.0,Calm,Calm,-,N/A,,Mostly Cloudy,0,2012-10-31 15:52:00
11:52 AM,42.1,37.9,85,30.01,8.0,NNE,3.5,-,N/A,,Overcast,20,2012-10-31 16:52:00
12:52 PM,46.9,37.9,71,30.02,10.0,West,3.5,-,N/A,,Overcast,270,2012-10-31 17:52:00
1:52 PM,48.9,39.9,71,30.02,10.0,NW,6.9,-,N/A,,Overcast,320,2012-10-31 18:52:00
2:52 PM,50.0,42.1,74,30.03,10.0,NNW,10.4,-,N/A,,Overcast,330,2012-10-31 19:52:00
3:52 PM,50.0,41.0,71,30.05,10.0,North,15.0,-,N/A,,Overcast,360,2012-10-31 20:52:00
4:05 PM,48.2,41.0,76,30.00,10.0,NNE,17.3,23.0,N/A,,Overcast,20,2012-10-31 21:05:00
4:18 PM,46.4,39.2,76,30.01,10.0,North,13.8,-,N/A,,Overcast,10,2012-10-31 21:18:00
4:52 PM,46.0,39.9,79,30.08,10.0,North,11.5,-,N/A,,Overcast,10,2012-10-31 21:52:00
5:52 PM,44.1,39.0,82,30.11,10.0,North,11.5,18.4,N/A,,Overcast,360,2012-10-31 22:52:00
6:52 PM,41.0,36.0,82,30.14,10.0,North,10.4,18.4,N/A,,Overcast,350,2012-10-31 23:52:00
7:16 PM,39.2,35.6,87,30.11,10.0,North,15.0,-,N/A,,Overcast,360,2012-11-01 00:16:00
7:52 PM,39.0,35.1,86,30.17,10.0,North,6.9,18.4,N/A,,Overcast,360,2012-11-01 00:52:00
8:52 PM,37.9,34.0,86,30.18,10.0,North,9.2,-,N/A,,Overcast,360,2012-11-01 01:52:00
9:43 PM,37.4,33.8,87,30.11,10.0,NNE,11.5,-,N/A,,Overcast,20,2012-11-01 02:43:00
9:52 PM,37.9,33.1,83,30.17,10.0,North,12.7,-,N/A,,Overcast,360,2012-11-01 02:52:00
10:52 PM,37.9,34.0,86,30.17,10.0,NNW,9.2,-,N/A,,Overcast,340,2012-11-01 03:52:00
11:52 PM,37.9,34.0,86,30.18,10.0,North,9.2,-,N/A,,Overcast,360,2012-11-01 04:52:00